Location: *
(37.9500°N, 27.3666°E)
Time: 13:28:52
(UTC+00:00)

ATLAS 5 CENTAUR R/B - Pass Details

Date: 24 October 2021
Orbit: 497 x 1159 km, 63.4° (Epoch: 25 November)

Event Time Altitude Azimuth Distance (km) Brightness Sun altitude
Rises 16:05:43 0° 258° (WSW) 2,600 7.1 -9.5°
Reaches altitude 10° 16:08:35 10° 283° (WNW) 1,767 5.2 -10.0°
Maximum altitude 16:10:54 15° 319° (NW) 1,526 4.0 -10.5°
Drops below altitude 10° 16:13:23 10° 356° (N) 1,902 4.0 -11.0°
Sets 16:16:40 0° 19° (NNE) 2,930 4.8 -11.6°
